Location: Gairloch Mountain Observatory
(46.1383°N, 60.9640°W)
Time: 07:30:26
(UTC-03:00)

CENTAUR R/B - Visible Passes

Search period start: 28 June 2017 00:00
Search period end: 08 July 2017 00:00
Orbit: 830 x 1359 km, 63.5° (Epoch: 30 May)

Date Brightness Start Highest point End Pass type
(mag) Time Alt. Az. Time Alt. Az. Time Alt. Az.
28 Jun 4.5 03:09:43 10° SSE 03:13:44 18° ESE 03:18:02 10° ENE visible
29 Jun 3.0 04:09:14 10° SSW 04:15:09 59° ESE 04:21:56 10° NE visible
30 Jun 3.6 03:22:26 13° S 03:27:15 36° ESE 03:33:19 10° NE visible
01 Jul 4.2 02:35:47 12° SSE 02:39:31 21° ESE 02:44:17 10° ENE visible
01 Jul 2.7 04:23:05 10° SW 04:29:13 80° NW 04:36:19 10° NE visible
02 Jul 4.6 01:50:14 10° ESE 01:51:59 11° ESE 01:53:47 10° E visible
02 Jul 2.7 03:36:17 17° SSW 03:41:03 67° ESE 03:47:55 10° NE visible
03 Jul 3.3 02:49:34 21° S 02:53:06 40° ESE 02:59:23 10° NE visible
04 Jul 3.9 02:02:48 19° SE 02:05:20 24° ESE 02:10:29 10° ENE visible
04 Jul 2.7 03:49:58 15° SW 03:55:10 73° NW 04:02:16 10° NE visible
05 Jul 4.4 01:16:01 12° ESE 01:17:45 13° ESE 01:20:38 10° ENE visible
05 Jul 2.6 03:03:11 25° SSW 03:06:58 74° ESE 03:13:55 10° NE visible
06 Jul 3.1 02:16:21 30° S 02:18:57 46° ESE 02:25:26 10° NE visible
06 Jul 3.4 04:03:37 10° WSW 04:09:39 46° NW 04:16:31 10° NNE visible
07 Jul 3.6 01:29:29 24° SE 01:31:09 27° ESE 01:36:38 10° NE visible
07 Jul 2.8 03:16:39 20° SW 03:21:09 66° NW 03:28:14 10° NE visible
